TimeFJT,TemperatureF,Dew PointF,Humidity,Sea Level PressureIn,VisibilityMPH,Wind Direction,Wind SpeedMPH,Gust SpeedMPH,PrecipitationIn,Events,Conditions,WindDirDegrees,DateUTC
12:00 AM,74,70,82,29.97,12,SSE,5.8,,,,Partly Cloudy,160,2013-08-24 12:00:00
12:00 AM,73.4,69.8,88,29.95,6.2,SSE,5.8,-,N/A,,Scattered Clouds,160,2013-08-24 12:00:00
1:00 AM,73.4,69.8,88,29.95,6.2,Calm,Calm,-,N/A,,Scattered Clouds,0,2013-08-24 13:00:00
2:00 AM,71.6,69.8,94,29.92,6.2,Calm,Calm,-,N/A,,Scattered Clouds,0,2013-08-24 14:00:00
3:00 AM,71,69,92,29.92,12,Calm,Calm,,,,Partly Cloudy,,2013-08-24 15:00:00
3:00 AM,71.6,69.8,94,29.92,6.2,Calm,Calm,-,N/A,,Scattered Clouds,0,2013-08-24 15:00:00
4:00 AM,71.6,69.8,94,29.92,6.2,ESE,5.8,-,N/A,,Scattered Clouds,120,2013-08-24 16:00:00
5:00 AM,69.8,68.0,94,29.92,6.2,Calm,Calm,-,N/A,,Scattered Clouds,0,2013-08-24 17:00:00
6:00 AM,72,70,90,29.94,12,East,5.8,,,,Partly Cloudy,80,2013-08-24 18:00:00
6:00 AM,71.6,69.8,94,29.92,6.2,East,5.8,-,N/A,,Scattered Clouds,80,2013-08-24 18:00:00
7:00 AM,71.6,69.8,94,29.95,6.2,East,5.8,-,N/A,,Scattered Clouds,100,2013-08-24 19:00:00
8:00 AM,75.2,69.8,83,29.95,6.2,ESE,5.8,-,N/A,,Mostly Cloudy,120,2013-08-24 20:00:00
9:00 AM,79,70,66,29.98,31,SE,5.8,,,,Partly Cloudy,140,2013-08-24 21:00:00
9:00 AM,78.8,69.8,74,29.98,6.2,SE,5.8,-,N/A,,Partly Cloudy,140,2013-08-24 21:00:00
10:00 AM,84.2,69.8,62,29.98,31.1,SSE,5.8,-,N/A,,Partly Cloudy,150,2013-08-24 22:00:00
11:00 AM,86.0,69.8,58,29.95,6.2,ENE,6.9,-,N/A,,Partly Cloudy,70,2013-08-24 23:00:00
12:00 PM,77.0,66.2,69,29.92,31.1,SE,3.5,-,N/A,,Scattered Clouds,140,2013-08-25 00:00:00
1:00 PM,84.2,69.8,62,29.92,6.2,South,11.5,-,N/A,,Scattered Clouds,180,2013-08-25 01:00:00
2:00 PM,86.0,69.8,58,29.89,6.2,South,11.5,-,N/A,,Partly Cloudy,170,2013-08-25 02:00:00
3:00 PM,84.2,69.8,62,29.89,6.2,South,17.3,-,N/A,,Scattered Clouds,170,2013-08-25 03:00:00
4:00 PM,82.4,68.0,62,29.89,6.2,SSE,13.8,-,N/A,,Scattered Clouds,160,2013-08-25 04:00:00
5:00 PM,80.6,66.2,61,29.92,6.2,SSE,11.5,-,N/A,,Scattered Clouds,160,2013-08-25 05:00:00
6:00 PM,75,65,64,29.94,31,SSE,12.7,,,,Partly Cloudy,160,2013-08-25 06:00:00
6:00 PM,75.2,66.2,73,29.92,6.2,SSE,12.7,-,N/A,,Mostly Cloudy,160,2013-08-25 06:00:00
7:00 PM,75.2,64.4,69,29.95,6.2,SE,12.7,-,N/A,,Mostly Cloudy,130,2013-08-25 07:00:00
8:00 PM,75.2,62.6,65,29.98,6.2,SE,8.1,-,N/A,,Mostly Cloudy,130,2013-08-25 08:00:00
9:00 PM,74,62,58,29.99,12,ESE,8.1,,,,Partly Cloudy,120,2013-08-25 09:00:00
9:00 PM,73.4,62.6,69,29.98,6.2,ESE,8.1,-,N/A,,Scattered Clouds,120,2013-08-25 09:00:00
10:00 PM,73.4,62.6,69,30.01,6.2,SE,5.8,-,N/A,,Scattered Clouds,130,2013-08-25 10:00:00
11:00 PM,75.2,62.6,65,30.01,6.2,SE,11.5,-,N/A,,Mostly Cloudy,130,2013-08-25 11:00:00